Location: Brompton
(51.4000°N, 0.5333°E)
Time: 09:14:14
(UTC+00:00)

Cosmos 372 Rocket - Pass Details

Date: 11 May 2021
Orbit: 738 x 768 km, 74.1° (Epoch: 12 June)

Event Time Altitude Azimuth Distance (km) Brightness Sun altitude
Exits shadow 23:07:03 41° 167° (SSE) 1,057 4.2 -19.7°
Maximum altitude 23:08:34 60° 109° (ESE) 844 4.0 -19.8°
Drops below altitude 10° 23:13:36 10° 30° (NNE) 2,259 7.1 -19.9°
Sets 23:15:59 0° 27° (NNE) 3,188 8.1 -20.0°
